Vorticity
nan nan nan nan nan nan nan nan nan nan nan nan nan nan nan nan nan nan nan nan nan nan nan nan nan nan nan nan nan nan nan nan nan
nan 2 3 6 6 5 6 5 6 7 7 5 5 3 5 12 6 6 7 6 6 7 6 6 5 6 7 6 5 5 4 4 nan
nan 2 4 5 6 7 6 5 6 8 8 5 4 5 8 8 5 6 6 5 7 6 7 7 6 6 7 6 6 5 5 5 nan
nan 7 6 5 5 6 7 6 6 9 7 5 5 4 7 11 6 7 9 7 5 5 7 8 7 6 5 6 6 7 5 5 nan
nan 11 10 6 6 8 7 7 8 9 7 6 5 3 8 7 6 6 6 9 9 7 6 7 8 9 7 7 6 6 8 7 nan
nan 3 13 14 9 9 8 7 5 1 3 5 6 7 9 5 7 6 3 8 8 8 7 6 7 8 9 7 7 7 9 8 nan
nan 2 6 17 13 5 4 3 5 5 2 1 6 13 7 6 7 4 9 13 7 9 8 6 7 6 6 5 6 7 7 7 nan
nan 5 6 7 10 5 5 3 3 9 8 7 7 8 8 7 3 4 14 17 12 8 7 7 6 6 5 5 5 5 6 6 nan
nan 7 7 4 8 8 4 6 8 7 8 8 8 8 8 8 4 1 12 16 16 12 8 8 8 6 5 4 4 6 6 6 nan
nan 8 7 6 6 6 8 7 7 6 6 7 7 6 7 9 8 0 3 12 15 13 15 13 7 4 4 4 6 6 7 7 nan
nan 9 8 7 6 5 6 7 7 7 6 7 6 6 7 6 8 7 0 2 8 12 16 16 9 5 4 5 8 8 9 9 nan
nan 8 9 9 9 8 4 6 7 6 6 6 7 5 6 7 7 8 6 1 -1 5 11 16 16 9 6 7 8 10 10 11 nan
nan 7 9 9 9 9 8 5 4 6 6 6 6 7 6 6 7 8 8 8 3 0 0 7 17 15 9 9 7 7 7 9 nan
nan 8 9 8 8 9 9 8 6 6 6 7 6 7 7 7 7 7 8 8 9 4 0 1 4 18 17 7 6 5 5 5 nan
nan 8 8 8 8 7 9 9 9 8 6 6 6 7 7 8 8 7 7 7 8 8 6 5 1 8 17 12 6 5 6 6 nan
nan 7 8 8 9 8 7 9 9 6 6 5 5 6 6 7 7 7 7 7 7 8 8 8 7 3 8 14 11 6 5 4 nan
nan 8 8 8 9 9 6 5 4 8 8 2 6 8 6 7 7 7 7 7 7 7 8 8 8 8 6 12 16 9 6 4 nan
nan 8 8 8 9 10 7 5 5 5 7 7 7 8 9 8 9 7 7 8 7 7 7 7 7 7 7 8 10 12 10 5 nan
nan 8 9 8 9 9 8 7 5 7 6 5 6 4 11 10 7 11 9 8 8 7 7 7 6 6 6 6 6 9 8 5 nan
nan nan nan nan nan nan nan nan nan nan nan nan nan nan nan nan nan nan nan nan nan nan nan nan nan nan nan nan nan nan nan nan nan
CAPE
1014 811 1045 1138 1045 928 800 860 700 557 871 1169 847 593 368 298 425 562 643 731 871 903 1038 1043 1212 1086 1118 1246 1074 944 681 419 290
680 414 527 892 939 916 863 847 659 416 821 851 513 233 116 305 405 331 362 777 891 948 916 955 829 850 937 1106 1005 937 735 443 359
49 134 194 659 823 844 865 804 489 569 815 439 191 72 17 108 291 622 437 648 873 994 1012 1013 805 624 875 849 849 693 589 307 152
0 46 120 354 707 787 775 503 212 301 256 234 102 28 93 211 174 110 385 521 529 766 947 977 989 835 796 797 728 606 462 316 264
1 3 54 229 529 635 472 356 385 309 164 47 8 0 96 294 316 364 555 854 756 807 733 843 973 1006 942 827 682 546 379 283 264
1 0 0 77 418 472 362 343 190 12 2 1 0 0 227 202 238 331 292 317 757 805 724 617 752 872 852 779 357 191 314 194 279
0 0 0 30 277 239 204 89 0 19 160 42 0 180 176 190 195 210 355 357 513 571 617 665 805 590 549 217 50 9 30 46 48
0 1 1 32 36 121 32 24 32 27 13 4 0 1 83 168 162 8 127 377 522 582 508 555 642 388 92 19 3 0 0 0 0
0 4 7 12 41 70 57 20 13 10 12 1 1 1 6 22 50 10 0 394 374 421 445 458 418 412 114 0 0 0 0 0 0
0 0 2 7 3 5 7 8 10 1 0 1 1 1 0 0 10 25 0 28 280 233 153 386 411 258 49 0 0 0 0 0 0
0 0 2 9 18 20 16 6 5 2 0 0 0 0 0 0 0 9 2 2 6 90 86 93 155 83 1 5 4 1 1 1 0
0 0 0 7 22 17 21 2 2 0 0 0 0 0 0 0 0 0 0 0 0 1 25 39 36 52 59 44 8 1 0 0 0
0 0 0 5 19 28 31 30 0 0 0 0 0 0 0 0 0 0 0 0 0 0 1 4 14 42 67 68 72 55 27 13 11
0 0 0 0 19 20 24 28 25 1 0 0 0 0 0 0 0 0 0 0 0 0 0 0 0 3 70 64 55 18 7 13 5
0 0 0 0 16 13 19 22 17 0 0 0 0 0 0 0 0 0 0 0 0 0 0 0 0 0 36 60 64 33 31 27 3
0 0 0 0 8 19 0 0 1 0 0 0 0 0 0 0 0 0 0 0 0 0 0 0 0 0 0 30 59 56 26 26 1
0 0 0 0 1 16 0 0 0 0 0 0 0 0 0 0 0 0 0 0 0 0 0 0 0 0 0 0 48 48 36 18 4
0 0 0 0 0 8 15 0 0 0 0 0 5 4 0 0 0 0 0 0 0 0 0 0 0 0 0 0 0 20 43 19 9
0 0 0 0 0 1 13 11 0 9 0 0 0 0 0 0 0 0 0 0 0 0 0 0 0 0 0 0 0 0 2 3 1
0 0 0 0 0 0 6 10 3 2 9 1 0 0 0 0 0 0 0 0 0 0 0 0 0 0 0 0 0 0 1 2 0